When you browse on this site, cookies collect data to enhance your experience and personalize the content and advertising you see.
Visit our Privacy Policy to learn more. By continuing to use the site, you agree to this use of cookies and data.
  • In Portugal
  • List of Countries
  • For 7 days
  • Water Temperature
  • Satellite Maps
  • Weather Map
  • Weather Widgets
  • user-avatar
    Login

    Hourly Weather Zagarya

    Today, 20 July, Saturday

    Time Temperature Precipitation Wind Pressure Humidity
    00:00 +18°C° 0.6 mm 1 mps 742 mmHg 92%
    01:00 +16°C° 0.6 mm 1 mps 742 mmHg 94%
    02:00 +16°C° 0.1 mm 1 mps 742 mmHg 94%
    03:00 +16°C° 0.1 mm 1 mps 742 mmHg 95%
    04:00 +15°C° 0.1 mm 1 mps 742 mmHg 95%
    05:00 +16°C° 0 mm 1 mps 742 mmHg 94%
    06:00 +18°C° 0 mm 1 mps 743 mmHg 92%
    07:00 +19°C° 0 mm 1 mps 743 mmHg 90%
    08:00 +21°C° 0 mm 1 mps 743 mmHg 81%
    09:00 +21°C° 0 mm 2 mps 743 mmHg 72%
    10:00 +24°C° 0 mm 2 mps 743 mmHg 62%
    11:00 +25°C° 0 mm 2 mps 743 mmHg 60%
    12:00 +26°C° 0 mm 2 mps 744 mmHg 57%
    13:00 +27°C° 0 mm 3 mps 744 mmHg 55%
    14:00 +28°C° 0 mm 3 mps 744 mmHg 54%
    15:00 +28°C° 0 mm 2 mps 744 mmHg 53%
    16:00 +28°C° 0 mm 2 mps 744 mmHg 52%
    17:00 +27°C° 0 mm 2 mps 744 mmHg 59%
    18:00 +26°C° 0 mm 2 mps 744 mmHg 65%
    19:00 +25°C° 0 mm 2 mps 744 mmHg 72%
    20:00 +23°C° 0 mm 2 mps 744 mmHg 77%
    21:00 +20°C° 0 mm 2 mps 744 mmHg 83%
    22:00 +19°C° 0 mm 2 mps 744 mmHg 88%
    23:00 +19°C° 0 mm 1 mps 744 mmHg 90%

    Tomorrow, 21 July, Sunday

    Time Temperature Precipitation Wind Pressure Humidity
    00:00 +18°C° 0 mm 1 mps 744 mmHg 93%
    01:00 +18°C° 0 mm 1 mps 744 mmHg 95%
    02:00 +16°C° 0 mm 1 mps 744 mmHg 95%
    03:00 +16°C° 0 mm 1 mps 744 mmHg 96%
    04:00 +15°C° 0 mm 1 mps 744 mmHg 96%
    05:00 +16°C° 0 mm 2 mps 744 mmHg 92%
    06:00 +18°C° 0 mm 2 mps 744 mmHg 88%
    07:00 +19°C° 0 mm 2 mps 743 mmHg 83%
    08:00 +20°C° 0 mm 2 mps 743 mmHg 76%
    09:00 +23°C° 0 mm 2 mps 743 mmHg 69%
    10:00 +24°C° 0 mm 3 mps 743 mmHg 62%
    11:00 +25°C° 0 mm 3 mps 743 mmHg 59%
    12:00 +25°C° 0 mm 3 mps 743 mmHg 56%
    13:00 +26°C° 0 mm 3 mps 743 mmHg 53%
    14:00 +26°C° 0 mm 3 mps 743 mmHg 54%
    15:00 +26°C° 0 mm 3 mps 743 mmHg 55%
    16:00 +26°C° 0 mm 3 mps 743 mmHg 56%
    17:00 +25°C° 0.2 mm 3 mps 743 mmHg 64%
    18:00 +24°C° 0.2 mm 2 mps 743 mmHg 71%
    19:00 +21°C° 0.2 mm 2 mps 742 mmHg 78%
    20:00 +20°C° 0 mm 2 mps 742 mmHg 83%
    21:00 +18°C° 0 mm 2 mps 742 mmHg 88%
    22:00 +16°C° 0 mm 2 mps 742 mmHg 93%
    23:00 +16°C° 0 mm 2 mps 742 mmHg 94%

    Day after tomorrow, 22 July, Monday

    Time Temperature Precipitation Wind Pressure Humidity
    00:00 +15°C° 0 mm 2 mps 742 mmHg 95%
    01:00 +15°C° 0 mm 1 mps 742 mmHg 96%
    02:00 +14°C° 0 mm 1 mps 742 mmHg 97%
    03:00 +14°C° 0 mm 1 mps 742 mmHg 97%
    04:00 +14°C° 0 mm 1 mps 742 mmHg 97%
    05:00 +15°C° 0 mm 1 mps 742 mmHg 94%
    06:00 +16°C° 0 mm 2 mps 742 mmHg 91%
    07:00 +17°C° 0 mm 2 mps 742 mmHg 88%
    08:00 +19°C° 0 mm 2 mps 741 mmHg 79%
    09:00 +21°C° 0 mm 2 mps 741 mmHg 70%
    10:00 +23°C° 0 mm 2 mps 741 mmHg 61%
    11:00 +23°C° 0.5 mm 2 mps 741 mmHg 65%
    12:00 +22°C° 0.5 mm 3 mps 741 mmHg 70%
    13:00 +22°C° 0.5 mm 3 mps 740 mmHg 74%
    14:00 +24°C° 0.7 mm 2 mps 740 mmHg 72%
    15:00 +24°C° 0.7 mm 2 mps 740 mmHg 70%
    16:00 +24°C° 0.7 mm 2 mps 740 mmHg 68%
    17:00 +23°C° 0.6 mm 2 mps 740 mmHg 75%
    18:00 +21°C° 0.6 mm 2 mps 741 mmHg 81%
    19:00 +20°C° 0.6 mm 2 mps 741 mmHg 88%
    20:00 +19°C° 0.1 mm 2 mps 741 mmHg 90%
    21:00 +17°C° 0.1 mm 2 mps 741 mmHg 93%
    22:00 +16°C° 0.1 mm 2 mps 741 mmHg 96%
    23:00 +15°C° 0 mm 2 mps 740 mmHg 97%

    23 July, Tuesday

    Time Temperature Precipitation Wind Pressure Humidity
    00:00 +15°C° 0 mm 2 mps 740 mmHg 97%
    01:00 +14°C° 0 mm 2 mps 740 mmHg 98%
    02:00 +14°C° 0 mm 2 mps 741 mmHg 98%
    03:00 +13°C° 0 mm 1 mps 741 mmHg 98%
    04:00 +13°C° 0 mm 1 mps 741 mmHg 98%
    05:00 +14°C° 0 mm 1 mps 741 mmHg 97%
    06:00 +15°C° 0 mm 2 mps 741 mmHg 96%
    07:00 +16°C° 0 mm 2 mps 742 mmHg 94%
    08:00 +17°C° 0 mm 2 mps 742 mmHg 87%
    09:00 +19°C° 0 mm 2 mps 742 mmHg 80%
    10:00 +20°C° 0 mm 2 mps 742 mmHg 72%
    11:00 +21°C° 0.3 mm 2 mps 742 mmHg 73%
    12:00 +22°C° 0.3 mm 1 mps 742 mmHg 73%
    13:00 +23°C° 0.3 mm 1 mps 742 mmHg 74%
    14:00 +21°C° 0.7 mm 2 mps 742 mmHg 78%
    15:00 +21°C° 0.7 mm 2 mps 743 mmHg 81%
    16:00 +21°C° 0.7 mm 2 mps 743 mmHg 85%
    17:00 +20°C° 0.3 mm 2 mps 743 mmHg 87%
    18:00 +20°C° 0.3 mm 2 mps 743 mmHg 89%
    19:00 +21°C° 0.3 mm 1 mps 743 mmHg 91%
    20:00 +19°C° 0.1 mm 2 mps 743 mmHg 93%
    21:00 +17°C° 0.1 mm 2 mps 743 mmHg 94%
    22:00 +16°C° 0.1 mm 2 mps 743 mmHg 95%
    23:00 +16°C° 0 mm 2 mps 743 mmHg 96%

    24 July, Wednesday

    Time Temperature Precipitation Wind Pressure Humidity
    00:00 +16°C° 0 mm 1 mps 743 mmHg 96%
    01:00 +15°C° 0 mm 1 mps 744 mmHg 96%
    02:00 +15°C° 0 mm 1 mps 744 mmHg 96%
    03:00 +15°C° 0 mm 1 mps 744 mmHg 96%
    04:00 +15°C° 0 mm 1 mps 744 mmHg 96%
    05:00 +16°C° 0 mm 1 mps 745 mmHg 94%
    06:00 +18°C° 0 mm 1 mps 745 mmHg 92%
    07:00 +19°C° 0 mm 1 mps 745 mmHg 89%
    08:00 +21°C° 0 mm 1 mps 745 mmHg 78%
    09:00 +24°C° 0 mm 1 mps 745 mmHg 67%
    10:00 +26°C° 0 mm 1 mps 746 mmHg 56%
    11:00 +27°C° 0 mm 1 mps 746 mmHg 52%
    12:00 +28°C° 0 mm 1 mps 746 mmHg 47%
    13:00 +29°C° 0 mm 1 mps 746 mmHg 42%
    14:00 +29°C° 0 mm 1 mps 746 mmHg 44%
    15:00 +29°C° 0 mm 1 mps 746 mmHg 45%
    16:00 +28°C° 0 mm 1 mps 746 mmHg 47%
    17:00 +27°C° 0 mm 1 mps 747 mmHg 54%
    18:00 +26°C° 0 mm 1 mps 747 mmHg 62%
    19:00 +24°C° 0 mm 2 mps 747 mmHg 69%
    20:00 +22°C° 0.1 mm 1 mps 747 mmHg 74%
    21:00 +20°C° 0.1 mm 1 mps 747 mmHg 79%
    22:00 +16°C° 0.1 mm 0 mps 747 mmHg 84%
    23:00 +16°C° 0 mm 0 mps 748 mmHg 85%

    25 July, Thursday

    Time Temperature Precipitation Wind Pressure Humidity
    00:00 +16°C° 0 mm 0 mps 748 mmHg 86%
    01:00 +15°C° 0 mm 0 mps 748 mmHg 88%
    02:00 +15°C° 0 mm 0 mps 748 mmHg 89%
    03:00 +15°C° 0 mm 0 mps 748 mmHg 90%
    04:00 +14°C° 0 mm 0 mps 748 mmHg 91%
    05:00 +16°C° 0 mm 0 mps 749 mmHg 86%
    06:00 +17°C° 0 mm 0 mps 749 mmHg 81%
    07:00 +19°C° 0 mm 0 mps 749 mmHg 76%
    08:00 +21°C° 0 mm 0 mps 749 mmHg 69%
    09:00 +23°C° 0 mm 0 mps 749 mmHg 62%
    10:00 +26°C° 0 mm 0 mps 749 mmHg 55%
    11:00 +26°C° 0 mm 0 mps 749 mmHg 51%
    12:00 +29°C° 0 mm 1 mps 749 mmHg 48%
    13:00 +29°C° 0 mm 1 mps 749 mmHg 45%
    14:00 +29°C° 0 mm 1 mps 749 mmHg 45%
    15:00 +29°C° 0 mm 1 mps 748 mmHg 46%
    16:00 +29°C° 0 mm 1 mps 748 mmHg 46%
    17:00 +28°C° 0 mm 1 mps 748 mmHg 54%
    18:00 +26°C° 0 mm 1 mps 748 mmHg 61%
    19:00 +25°C° 0 mm 1 mps 748 mmHg 68%
    20:00 +24°C° 0 mm 1 mps 748 mmHg 72%
    21:00 +20°C° 0 mm 0 mps 748 mmHg 76%
    22:00 +18°C° 0 mm 0 mps 748 mmHg 80%
    23:00 +17°C° 0 mm 0 mps 748 mmHg 82%
    Show more